Погода в Кировограде

Хотите узнать прогноз погоды в Кировограде? Тогда Вам сюда: Погода в Кировограде

Поиск расширенной информации на нашем сайте:

Полезная информация:

Новости сайта



02.01.2020
Опубликован Долгосрочный прогноз погоды по городам России и ближнего зарубежья на январь 2020 года.
Карты: Прогноз на январь и февраль 2020 года, Сравнение прогнозируемой аномалии приземной температуры воздуха на январь 2020 года по разным моделям.




Погода в Кировограде - сегодня

Время (UTC), дата Ветер
(°,м/с) 
Видим.   Явления Облачность Т
(°С)
Тd
(°С)
f(%) Тe
(°С)
Pmin
(гПа)
dP
(гПа)
Po
(мм)
O2
(г/м3)
Тmin Tmax R s Состояние
почвы
15 07.07.20 350 (С) 10 км    10/3 1000 м кучево-дожд., средняя, верхняя 
[Cb calv|Ac trans|Ci fib]
+31.7 +17.8 44 +46  1001.1  -0.9  737  262           
18 07.07.20 350 (С) 10 км  гроза без осадков  9/5 1000 м кучево-дожд., средняя 
[Cb cap|Ac trans]
+26.4 +17.9 60 +41  1002.8  1.4  738  267           
21 07.07.20 310 (СЗ) 10 км  гроза, ливневой дождь  10/8 1080 м кучево-дожд., средняя 
[Cb cap|Ac As]
+20.6 +18.7 89 +37  1003.2  738  272           
00 08.07.20 360 (С) 10 км  гроза, ливневой дождь  10/8 400 м кучево-дожд., средняя 
[Cb cap|Ac As]
+19.2 +18.6 96 +36  1004.5  1.2  739  274           
03 08.07.20 320 (СЗ) 10 км  в посл. час ливневой дождь{гроза}  10/10 360 м кучево-дожд. 
[Cb calv]
+15.7 +15.2 97 +24  1006.7  1.9  740  279           
06 08.07.20 320 (СЗ) 10 км  в посл. час ливневой дождь{гроза}  10/10 300 м кучево-дожд. 
[Cb calv]
+13.6 +13.1 97 +19  1008.5  1.6  741  282  +13.2    13     
09 08.07.20 320 (СЗ) 10 км  {ливн. осадки}  10/10 500 м кучево-дожд. 
[Cb calv]
+13.8 +12.9 94 +18  1010.6  743  282           
12 08.07.20 320 (СЗ) 10 км  {ливн. осадки}  9/9 900 м кучево-дожд. 
[Cb calv]
+17.5 +11.3 67 +20  1012  1.7  744  280           
15 08.07.20 340 (С) 10 км    6/4 1000 м средняя 
[Sc|Ac trans]
+20.1 +10.8 55 +22  1012.9  745  278           
18 08.07.20 тихо ()   10 км    3/0 средняя 
[Ac trans]
+17.1 +11 67 +20  1014.2  1.1  746  281      0.0     
21 08.07.20 290 (З) 10 км    ясно 
+13.2 +10.3 83 +15  1015.6  1.1  746  285           
00 09.07.20 290 (З) 10 км    ясно 
+10.9 +8.7 86 +12  1016.9  1.1  747  288           
03 09.07.20 290 (З) 10 км    ясно 
+10.4 +9 91 +12  1018.2  1.2  748  289           
06 09.07.20 310 (СЗ) 10 км    ясно 
+17.6 +11.4 67 +21  1018.3  0.6  749  281  +10.4  +2.2       
09 09.07.20 310 (СЗ) 10 км    6/4 1500 м верхняя 
[Cu hum|Ci fib]
+22.1 +6.2 36 +22  1018.5  0.5  749  278           
12 09.07.20 270 (З) 10 км    4/4 1500 м 
[Cu hum]
+23.8 +6.9 34 +24  1018.6  0.2  749  277           
15 09.07.20 280 (З) 10 км    5/3 1500 м средняя 
[Cu hum|Ac trans]
+24.7 +8.8 36 +25  1018.2  -0.3  749  275           
18 09.07.20 350 (С) 10 км    8/0 средняя 
[Ac trans]
+20.3 +11.5 57 +24  1019.3  0.8  749  279           
21 09.07.20 тихо ()   10 км    9/0 средняя 
[Ac trans]
+18.4 +12.3 68 +23  1019.9  0.5  750  281           
00 10.07.20 тихо ()   10 км    9/0 средняя 
[Ac trans]
+16.6 +13.6 82 +23  1020.3  0.3  750  282           
03 10.07.20 тихо ()   10 км    9/0 средняя 
[Ac trans]
+16.2 +15 93 +25  1021.1  0.7  751  282           
06 10.07.20 140 (ЮВ) 10 км    4/0 средняя 
[Ac trans]
+20.2 +12.4 61 +25  1021.3  0.5  751  279  +16.2  +2.3       
09 10.07.20 210 (ЮЗ) 10 км    3/3 1000 м 
[Cu hum]
+25.2 +10.8 40 +27  1020.4  -0.6  751  275           
12 10.07.20 190 (Ю) 10 км    6/6 1500 м 
[Cu hum]
+28 +10.3 33 +30  1019.1  -1.1  750  272           
15 10.07.20 260 (З) 10 км    3/3 1500 м 
[Cu hum]
+28.4 +11.9 36 +32  1018.5  -0.5  749  271           
Время (UTC), дата Ветер
(°,м/с) 
Видим.   Явления Облачность Т
(°С)
Тd
(°С)
f(%) Тe
(°С)
Pmin
(гПа)
dP
(гПа)
Po
(мм)
O2
(г/м3)
Тmin Tmax R s Состояние
почвы

Для получения пояснительной информации подведите курсор к названию столбца.

ПОГОДА в Кировограде - архив

Всё, что Вы хотите узнать о погоде в Кировограде - удобно и подробно!

Выберите нужную дату (начиная с 1 января 2019* года) и нажмите кнопку "Найти".
Будут отображены архивные сводки погоды по пункту Кировоград, начиная с указанной даты.


Отображать данные в формате CSV (для использования в таблицах Excel)


Внимание! Наш архив погоды предназначен исключительно для личного некоммерческого использования в познавательных целях. Если Вам необходимы официальные справки о состоянии погоды (для производственных, юридических, коммерческих и т.п. целей), обращайтесь в органы Росгидромета.

*Примечание: данная дата относится к архиву по метеостанциям СССР (Россия, СНГ, Балтия).
Архив по метеостанциям Зарубежной Европы и Азии (кроме Китая) хранится 10 дней, по другим регионам земного шара (Китай, Африка, Америка, Австралия, Океания) - 1 день.

Кировоград - район местоположения метеостанции


Название, широта, долгота, высота метеостанции:
Кировоград 48.5°ш. 32.2°д. 171 м над ур. моря [Украина]

Дополнительная информация

В oтличие oт бoльшинства пoгoдных сайтoв мы публикуем пoдрoбную метеoинфoрмацию в детальнoм прoфессиoнальнoм фoрмате.

Характеристики температуры и влажнoсти вoздуха измеряются на высoте 2 м в тени вдали oт зданий и деревьев.
Скoрoсть ветра измеряется на высoте 10 м (на урoвне рoста челoвека скoрoсть ветра ниже в 1.5-2 раза). Если метеoстанция нахoдится в гoрoде или в лесу, тo скoрoсть ветра занижена на 2-4 м/с пo сравнению с oткрытым местoм. Скoрoсть ветра над акватoриями крупных рек и oзёр, а также на вершинах хoлмoв на 2-5 м/с выше, чем в oбычных услoвиях.
Атмoсфернoе давление в разных тoчках местнoсти мoжет значительнo oтличаться oт давления на метеoстанции, в зависимoсти oт услoвий рельефа (при пoдъёме на 10 м давление пoнижается примернo на 1 мм рт.ст.).